THY7MN LTAI-LTFM

Flight info

Callsign THY7MN
Flight time 0h 57m
Altitude 34000
Route EKSEN UM855 SISPI
Aircraft B77W/H-SDE1E2E3FGHIJ4J5M1P1P2RWXYZ/LB1D1

Departure

Time 2026-05-07 12:39
Airport Antalya International Airport (LTAI)

Arrival

Time 2026-05-07 13:37
Airport İstanbul Airport (LTFM)
Time Latitude Longitude Altitude Speed Heading
2026-05-07 11:59 36.91141 30.80043 180 ft 0 kts 96°
2026-05-07 12:33 36.91142 30.80022 180 ft 3 kts 87°
2026-05-07 12:33 36.91139 30.79994 180 ft 3 kts 67°
2026-05-07 12:33 36.91127 30.79970 180 ft 3 kts 40°
2026-05-07 12:34 36.91108 30.79957 180 ft 3 kts
2026-05-07 12:34 36.91103 30.79956 180 ft 0 kts
2026-05-07 12:37 36.91104 30.79956 180 ft 0 kts
2026-05-07 12:37 36.91114 30.79955 180 ft 3 kts 355°
2026-05-07 12:37 36.91151 30.79933 180 ft 9 kts 323°
2026-05-07 12:37 36.91196 30.79855 180 ft 14 kts 289°
2026-05-07 12:38 36.91210 30.79731 180 ft 15 kts 274°
2026-05-07 12:38 36.91216 30.79604 181 ft 15 kts 274°
2026-05-07 12:38 36.91222 30.79478 183 ft 15 kts 257°
2026-05-07 12:38 36.91128 30.79414 194 ft 29 kts 185°
2026-05-07 12:39 36.90656 30.79353 199 ft 106 kts 186°
2026-05-07 12:39 36.89694 30.79217 200 ft 169 kts 187°
2026-05-07 12:39 36.88450 30.79035 643 ft 184 kts 187°
2026-05-07 12:39 36.87177 30.78716 1365 ft 190 kts 199°
2026-05-07 12:40 36.85980 30.78026 2103 ft 190 kts 206°
2026-05-07 12:40 36.84790 30.77306 2820 ft 191 kts 204°
2026-05-07 12:40 36.83540 30.76648 3395 ft 198 kts 203°
2026-05-07 12:40 36.82258 30.75933 3940 ft 207 kts 205°
2026-05-07 12:41 36.80913 30.75180 4474 ft 217 kts 205°
2026-05-07 12:41 36.79519 30.74363 5012 ft 226 kts 212°
2026-05-07 12:41 36.78346 30.72980 5440 ft 241 kts 240°
2026-05-07 12:41 36.77581 30.71104 6081 ft 245 kts 244°
2026-05-07 12:42 36.76954 30.69109 6686 ft 253 kts 259°
2026-05-07 12:42 36.76899 30.66827 7018 ft 275 kts 280°
2026-05-07 12:42 36.77577 30.64589 7675 ft 280 kts 306°
2026-05-07 12:42 36.79000 30.62974 8563 ft 278 kts 333°
2026-05-07 12:43 36.80814 30.62222 9499 ft 274 kts 350°
2026-05-07 12:43 36.82723 30.62050 10280 ft 278 kts
2026-05-07 12:43 36.84660 30.62428 10961 ft 287 kts 15°
2026-05-07 12:43 36.86577 30.63200 11660 ft 295 kts 19°
2026-05-07 12:44 36.88562 30.64036 12368 ft 305 kts 15°
2026-05-07 12:44 36.90659 30.64742 13018 ft 320 kts 13°
2026-05-07 12:44 36.92892 30.65290 13697 ft 333 kts
2026-05-07 12:44 36.95223 30.65737 14330 ft 347 kts
2026-05-07 12:45 36.97655 30.66230 15023 ft 360 kts
2026-05-07 12:45 37.00157 30.66768 15771 ft 370 kts
2026-05-07 12:45 37.02685 30.67334 16598 ft 376 kts
2026-05-07 12:45 37.05271 30.67906 17566 ft 379 kts
2026-05-07 12:46 37.07896 30.68455 18391 ft 386 kts
2026-05-07 12:46 37.10579 30.68931 19157 ft 392 kts
2026-05-07 12:46 37.13311 30.69426 19806 ft 402 kts
2026-05-07 12:46 37.16101 30.69999 20485 ft 410 kts
2026-05-07 12:47 37.18921 30.70597 21300 ft 412 kts
2026-05-07 12:47 37.21761 30.71203 22021 ft 417 kts
2026-05-07 12:47 37.24646 30.71788 22643 ft 423 kts
2026-05-07 12:47 37.27596 30.72052 23295 ft 427 kts 359°
2026-05-07 12:48 37.30583 30.71952 23998 ft 430 kts 354°
2026-05-07 12:48 37.33552 30.71460 24696 ft 432 kts 349°
2026-05-07 12:48 37.36528 30.70856 25328 ft 436 kts 349°
2026-05-07 12:48 37.39536 30.70277 25956 ft 439 kts 351°
2026-05-07 12:49 37.42592 30.69944 26585 ft 443 kts 355°
2026-05-07 12:49 37.45690 30.69761 27158 ft 447 kts 356°
2026-05-07 12:49 37.48808 30.69581 27715 ft 450 kts 355°
2026-05-07 12:49 37.51948 30.69385 28267 ft 453 kts 355°
2026-05-07 12:50 37.55104 30.69174 28774 ft 456 kts 355°
2026-05-07 12:50 37.58281 30.68957 29271 ft 459 kts 355°
2026-05-07 12:50 37.61478 30.68747 29761 ft 461 kts 355°
2026-05-07 12:50 37.64689 30.68545 30261 ft 462 kts 355°
2026-05-07 12:51 37.67892 30.68345 30852 ft 460 kts 355°
2026-05-07 12:51 37.71081 30.68146 31453 ft 458 kts 355°
2026-05-07 12:51 37.74256 30.67947 32014 ft 456 kts 355°
2026-05-07 12:51 37.77422 30.67746 32526 ft 455 kts 355°
2026-05-07 12:52 37.80581 30.67542 33042 ft 454 kts 355°
2026-05-07 12:52 37.83728 30.67342 33553 ft 452 kts 355°
2026-05-07 12:52 37.86871 30.67143 34021 ft 451 kts 355°
2026-05-07 12:52 37.90010 30.66903 34185 ft 455 kts 353°
2026-05-07 12:53 37.96293 30.66000 34174 ft 451 kts 351°
2026-05-07 12:53 38.02512 30.65112 34181 ft 449 kts 352°
2026-05-07 12:54 38.08711 30.64320 34194 ft 447 kts 352°
2026-05-07 12:54 38.14907 30.63525 34177 ft 448 kts 352°
2026-05-07 12:55 38.21118 30.62715 34175 ft 448 kts 352°
2026-05-07 12:55 38.27328 30.61905 34180 ft 449 kts 353°
2026-05-07 12:56 38.33585 30.61668 34180 ft 451 kts 358°
2026-05-07 12:56 38.39867 30.61644 34175 ft 451 kts 358°
2026-05-07 12:57 38.46150 30.61596 34177 ft 452 kts 358°
2026-05-07 12:57 38.52446 30.61526 34178 ft 452 kts 358°
2026-05-07 12:58 38.58727 30.61453 34175 ft 452 kts 357°
2026-05-07 12:58 38.65007 30.61381 34176 ft 451 kts 358°
2026-05-07 12:59 38.71234 30.60708 34165 ft 448 kts 346°
2026-05-07 12:59 38.77069 30.58189 34167 ft 445 kts 333°
2026-05-07 13:00 38.82571 30.54557 34172 ft 445 kts 332°
2026-05-07 13:00 38.88063 30.50873 34165 ft 446 kts 332°
2026-05-07 13:01 38.93572 30.47218 34154 ft 446 kts 332°
2026-05-07 13:01 38.99092 30.43576 34156 ft 446 kts 332°
2026-05-07 13:02 39.04619 30.39930 34161 ft 447 kts 332°
2026-05-07 13:02 39.10152 30.36271 34158 ft 447 kts 332°
2026-05-07 13:03 39.15682 30.32608 34165 ft 447 kts 332°
2026-05-07 13:03 39.21205 30.28941 34165 ft 447 kts 332°
2026-05-07 13:04 39.26732 30.25266 34157 ft 447 kts 332°
2026-05-07 13:04 39.32259 30.21584 34157 ft 447 kts 332°
2026-05-07 13:05 39.37789 30.17893 34159 ft 447 kts 332°
2026-05-07 13:05 39.43317 30.14198 34157 ft 447 kts 332°
2026-05-07 13:06 39.48925 30.10707 34154 ft 448 kts 336°
2026-05-07 13:06 39.54657 30.07560 34159 ft 448 kts 336°
2026-05-07 13:07 39.60305 30.04462 34075 ft 431 kts 336°
2026-05-07 13:07 39.63055 30.02938 33643 ft 428 kts 336°
2026-05-07 13:07 39.65786 30.01417 33170 ft 425 kts 336°
2026-05-07 13:08 39.68491 29.99907 32660 ft 422 kts 336°
2026-05-07 13:08 39.71184 29.98404 32140 ft 420 kts 336°
2026-05-07 13:08 39.73820 29.96933 31628 ft 417 kts 336°
2026-05-07 13:08 39.76481 29.95446 31116 ft 415 kts 336°
2026-05-07 13:09 39.79164 29.93942 30590 ft 413 kts 336°
2026-05-07 13:09 39.80907 29.92962 30235 ft 412 kts 336°
2026-05-07 13:09 39.83529 29.91488 29718 ft 409 kts 336°
2026-05-07 13:09 39.86980 29.89549 29016 ft 407 kts 336°
2026-05-07 13:10 39.89574 29.88088 28487 ft 404 kts 336°
2026-05-07 13:10 39.92235 29.86971 27979 ft 402 kts 350°
2026-05-07 13:10 39.94996 29.86833 27650 ft 394 kts 359°
2026-05-07 13:10 39.97717 29.86905 27278 ft 389 kts 359°
2026-05-07 13:11 39.99538 29.86938 27033 ft 386 kts 359°
2026-05-07 13:11 40.02203 29.86966 26673 ft 381 kts 358°
2026-05-07 13:11 40.04810 29.86976 26334 ft 377 kts 358°
2026-05-07 13:11 40.07421 29.86978 25988 ft 373 kts 358°
2026-05-07 13:12 40.10047 29.86973 25648 ft 373 kts 358°
2026-05-07 13:12 40.12621 29.86966 25307 ft 376 kts 358°
2026-05-07 13:12 40.15242 29.86961 24965 ft 378 kts 358°
2026-05-07 13:12 40.17869 29.86958 24609 ft 377 kts 358°
2026-05-07 13:13 40.20488 29.86953 24259 ft 375 kts 358°
2026-05-07 13:13 40.23090 29.86948 23917 ft 374 kts 358°
2026-05-07 13:13 40.25684 29.86944 23567 ft 372 kts 358°
2026-05-07 13:13 40.28264 29.86938 23226 ft 370 kts 358°
2026-05-07 13:14 40.30831 29.86934 22882 ft 368 kts 358°
2026-05-07 13:14 40.33390 29.86931 22555 ft 366 kts 358°
2026-05-07 13:14 40.35930 29.86925 22206 ft 365 kts 358°
2026-05-07 13:14 40.38459 29.86954 21868 ft 361 kts
2026-05-07 13:15 40.40925 29.87559 21538 ft 362 kts 15°
2026-05-07 13:15 40.43257 29.88791 21211 ft 362 kts 25°
2026-05-07 13:15 40.45373 29.90584 20876 ft 362 kts 33°
2026-05-07 13:15 40.47416 29.92521 20548 ft 361 kts 33°
2026-05-07 13:16 40.49454 29.94425 20216 ft 358 kts 32°
2026-05-07 13:16 40.51614 29.95980 19879 ft 352 kts 18°
2026-05-07 13:16 40.53962 29.96818 19559 ft 348 kts
2026-05-07 13:16 40.56362 29.97022 19247 ft 345 kts 358°
2026-05-07 13:17 40.58753 29.96968 18943 ft 343 kts 358°
2026-05-07 13:17 40.61138 29.96937 18611 ft 342 kts 358°
2026-05-07 13:17 40.63520 29.96924 18299 ft 342 kts 359°
2026-05-07 13:17 40.65876 29.96848 17977 ft 342 kts 354°
2026-05-07 13:18 40.68016 29.96436 17694 ft 340 kts 348°
2026-05-07 13:18 40.70309 29.95668 17373 ft 339 kts 341°
2026-05-07 13:18 40.72511 29.94665 17063 ft 339 kts 340°
2026-05-07 13:18 40.74744 29.93607 16748 ft 338 kts 340°
2026-05-07 13:19 40.76955 29.92565 16431 ft 336 kts 340°
2026-05-07 13:19 40.79133 29.91550 16131 ft 335 kts 340°
2026-05-07 13:19 40.81334 29.90530 15815 ft 334 kts 340°
2026-05-07 13:19 40.83500 29.89457 15501 ft 328 kts 333°
2026-05-07 13:20 40.85283 29.87622 15203 ft 326 kts 309°
2026-05-07 13:20 40.86409 29.85026 14931 ft 326 kts 291°
2026-05-07 13:20 40.86901 29.82152 14623 ft 327 kts 274°
2026-05-07 13:20 40.86871 29.79177 14346 ft 327 kts 269°
2026-05-07 13:21 40.86796 29.76160 14039 ft 329 kts 269°
2026-05-07 13:21 40.86731 29.73082 13724 ft 329 kts 270°
2026-05-07 13:21 40.86682 29.70065 13420 ft 328 kts 270°
2026-05-07 13:21 40.86641 29.67046 13072 ft 329 kts 270°
2026-05-07 13:22 40.86624 29.64035 12746 ft 326 kts 273°
2026-05-07 13:22 40.86844 29.61075 12434 ft 322 kts 279°
2026-05-07 13:22 40.87186 29.58171 12127 ft 318 kts 280°
2026-05-07 13:22 40.87525 29.55303 11829 ft 314 kts 279°
2026-05-07 13:23 40.87838 29.52473 11558 ft 309 kts 278°
2026-05-07 13:23 40.88133 29.49682 11268 ft 305 kts 278°
2026-05-07 13:23 40.88418 29.46918 10973 ft 301 kts 278°
2026-05-07 13:23 40.88627 29.44196 10817 ft 293 kts 275°
2026-05-07 13:24 40.88785 29.41541 10637 ft 286 kts 275°
2026-05-07 13:24 40.88929 29.38968 10511 ft 277 kts 275°
2026-05-07 13:24 40.89076 29.36387 9935 ft 285 kts 275°
2026-05-07 13:24 40.89227 29.33790 9715 ft 280 kts 275°
2026-05-07 13:25 40.89374 29.31257 9559 ft 273 kts 275°
2026-05-07 13:25 40.89519 29.28795 9389 ft 265 kts 275°
2026-05-07 13:25 40.89661 29.26390 9131 ft 259 kts 275°
2026-05-07 13:25 40.89801 29.24032 8638 ft 259 kts 275°
2026-05-07 13:26 40.89942 29.21644 8284 ft 261 kts 275°
2026-05-07 13:26 40.90082 29.19281 8026 ft 257 kts 275°
2026-05-07 13:26 40.90223 29.16901 7519 ft 265 kts 275°
2026-05-07 13:26 40.90367 29.14455 7122 ft 269 kts 275°
2026-05-07 13:27 40.90511 29.11993 6790 ft 268 kts 275°
2026-05-07 13:27 40.90654 29.09542 6469 ft 267 kts 275°
2026-05-07 13:27 40.90797 29.07095 6176 ft 266 kts 274°
2026-05-07 13:27 40.90937 29.04669 5886 ft 264 kts 274°
2026-05-07 13:28 40.91076 29.02257 5594 ft 262 kts 274°
2026-05-07 13:28 40.91226 28.99871 5355 ft 259 kts 276°
2026-05-07 13:28 40.91433 28.97544 5192 ft 252 kts 277°
2026-05-07 13:28 40.91640 28.95291 5089 ft 242 kts 277°
2026-05-07 13:29 40.91835 28.93122 5035 ft 237 kts 277°
2026-05-07 13:29 40.92026 28.90956 4983 ft 237 kts 277°
2026-05-07 13:29 40.92218 28.88787 4781 ft 238 kts 277°
2026-05-07 13:29 40.92409 28.86620 4572 ft 236 kts 276°
2026-05-07 13:30 40.92594 28.84473 4351 ft 233 kts 276°
2026-05-07 13:30 40.92776 28.82351 4138 ft 231 kts 276°
2026-05-07 13:30 40.93071 28.80301 4008 ft 225 kts 295°
2026-05-07 13:30 40.94063 28.78788 4018 ft 218 kts 326°
2026-05-07 13:31 40.95347 28.77741 4021 ft 218 kts 328°
2026-05-07 13:31 40.96660 28.76714 3993 ft 218 kts 331°
2026-05-07 13:31 40.98077 28.76166 3988 ft 212 kts 358°
2026-05-07 13:31 40.99578 28.76186 4024 ft 221 kts 359°
2026-05-07 13:32 41.01127 28.76162 4018 ft 223 kts 358°
2026-05-07 13:32 41.02659 28.76127 3994 ft 216 kts 358°
2026-05-07 13:32 41.04133 28.76104 4034 ft 210 kts 359°
2026-05-07 13:32 41.05601 28.76072 3996 ft 211 kts 358°
2026-05-07 13:33 41.07047 28.76044 3997 ft 204 kts 358°
2026-05-07 13:33 41.08461 28.76018 3770 ft 202 kts 358°
2026-05-07 13:33 41.09828 28.75990 3511 ft 192 kts 358°
2026-05-07 13:33 41.11176 28.75965 3271 ft 195 kts 358°
2026-05-07 13:34 41.12527 28.75936 3017 ft 193 kts 358°
2026-05-07 13:34 41.15113 28.75885 2480 ft 174 kts 359°
2026-05-07 13:34 41.16304 28.75864 2277 ft 171 kts 359°
2026-05-07 13:35 41.17494 28.75839 2089 ft 170 kts 359°
2026-05-07 13:35 41.18676 28.75816 1832 ft 168 kts 359°
2026-05-07 13:35 41.19829 28.75794 1639 ft 164 kts 359°
2026-05-07 13:35 41.20974 28.75753 1469 ft 164 kts 359°
2026-05-07 13:36 41.22091 28.75735 1286 ft 159 kts
2026-05-07 13:36 41.23188 28.75743 1063 ft 158 kts 359°
2026-05-07 13:36 41.24289 28.75680 816 ft 159 kts 359°
2026-05-07 13:36 41.25386 28.75622 577 ft 158 kts 360°
2026-05-07 13:37 41.26466 28.75655 386 ft 155 kts
2026-05-07 13:37 41.27504 28.75647 338 ft 136 kts 358°
2026-05-07 13:37 41.28213 28.75633 339 ft 49 kts 358°
2026-05-07 13:37 41.28413 28.75530 338 ft 25 kts 328°
2026-05-07 13:38 41.28469 28.75371 334 ft 21 kts 224°
2026-05-07 13:38 41.28337 28.75350 336 ft 19 kts 178°
2026-05-07 13:38 41.28207 28.75354 334 ft 19 kts 181°
2026-05-07 13:38 41.28077 28.75347 334 ft 19 kts 182°
2026-05-07 13:39 41.28054 28.75346 334 ft 0 kts 182°
2026-05-07 13:40 41.28045 28.75346 334 ft 3 kts 178°
2026-05-07 13:40 41.28012 28.75349 337 ft 7 kts 175°
2026-05-07 13:40 41.27952 28.75353 334 ft 11 kts 179°
2026-05-07 13:41 41.27866 28.75355 334 ft 14 kts 179°
2026-05-07 13:41 41.27755 28.75357 335 ft 18 kts 179°
2026-05-07 13:41 41.27622 28.75358 335 ft 21 kts 181°
2026-05-07 13:41 41.27469 28.75357 336 ft 23 kts 177°
2026-05-07 13:42 41.27310 28.75367 337 ft 23 kts 178°
2026-05-07 13:42 41.27154 28.75371 335 ft 18 kts 179°
2026-05-07 13:42 41.27076 28.75332 334 ft 11 kts 243°
2026-05-07 13:42 41.27068 28.75306 334 ft 0 kts 249°
2026-05-07 13:43 41.27066 28.75300 334 ft 3 kts 244°
2026-05-07 13:43 41.27029 28.75270 339 ft 8 kts 194°
2026-05-07 13:44 41.26973 28.75264 334 ft 8 kts 182°
2026-05-07 13:44 41.26917 28.75264 336 ft 8 kts 179°
2026-05-07 13:44 41.26861 28.75265 337 ft 8 kts 180°
2026-05-07 13:44 41.26786 28.75265 339 ft 13 kts 179°
2026-05-07 13:45 41.26691 28.75268 336 ft 14 kts 179°
2026-05-07 13:45 41.26593 28.75271 334 ft 15 kts 179°
2026-05-07 13:45 41.26488 28.75272 336 ft 15 kts 179°
2026-05-07 13:45 41.26383 28.75275 336 ft 15 kts 178°
2026-05-07 13:46 41.26277 28.75279 334 ft 15 kts 178°
2026-05-07 13:46 41.26172 28.75282 335 ft 15 kts 178°
2026-05-07 13:46 41.26061 28.75284 334 ft 19 kts 179°
2026-05-07 13:46 41.25924 28.75286 337 ft 20 kts 179°
2026-05-07 13:47 41.25787 28.75289 339 ft 20 kts 179°
2026-05-07 13:47 41.25666 28.75287 335 ft 13 kts 199°
2026-05-07 13:47 41.25646 28.75183 334 ft 12 kts 270°
2026-05-07 13:47 41.25645 28.75086 337 ft 8 kts 269°
2026-05-07 13:48 41.25687 28.75046 338 ft 9 kts 355°
2026-05-07 13:48 41.25726 28.75044 335 ft 0 kts 358°